AAY14 KRFD-KBNA

Flight info

Callsign AAY14
Flight time 1h 2m
Altitude 37000
Route BIXBY1 AHMED RBS CYBIL TONES RYYMN3
Aircraft A320/M-SDE3FGHIRWY/LB1

Departure

Time 2026-04-20 19:58
Airport Chicago Rockford International Airport (KRFD)

Arrival

Time 2026-04-20 21:01
Airport Nashville International Airport (KBNA)
Time Latitude Longitude Altitude Speed Heading
2026-04-20 18:49 42.20111 -89.09571 740 ft 0 kts 29°
2026-04-20 19:42 42.20100 -89.09579 737 ft 4 kts 27°
2026-04-20 19:42 42.20076 -89.09595 738 ft 4 kts 31°
2026-04-20 19:42 42.20061 -89.09612 738 ft 4 kts 100°
2026-04-20 19:43 42.20061 -89.09618 738 ft 0 kts 121°
2026-04-20 19:54 42.20061 -89.09617 738 ft 1 kts 121°
2026-04-20 19:54 42.20043 -89.09575 738 ft 9 kts 118°
2026-04-20 19:54 42.20011 -89.09492 739 ft 11 kts 108°
2026-04-20 19:55 42.20028 -89.09391 738 ft 12 kts 65°
2026-04-20 19:55 42.20059 -89.09302 739 ft 9 kts 65°
2026-04-20 19:55 42.20089 -89.09215 741 ft 13 kts 65°
2026-04-20 19:55 42.20142 -89.09133 742 ft 11 kts 12°
2026-04-20 19:56 42.20190 -89.09129 742 ft 10 kts
2026-04-20 19:56 42.20279 -89.09118 742 ft 9 kts
2026-04-20 19:56 42.20354 -89.09109 742 ft 10 kts
2026-04-20 19:56 42.20419 -89.09101 743 ft 8 kts
2026-04-20 19:57 42.20473 -89.09094 744 ft 8 kts
2026-04-20 19:57 42.20550 -89.09067 743 ft 13 kts 33°
2026-04-20 19:57 42.20583 -89.08957 742 ft 14 kts 92°
2026-04-20 19:57 42.20527 -89.08862 740 ft 16 kts 185°
2026-04-20 19:58 42.20333 -89.08888 743 ft 58 kts 185°
2026-04-20 19:58 42.19698 -89.08969 742 ft 123 kts 185°
2026-04-20 19:58 42.18713 -89.09108 1054 ft 147 kts 185°
2026-04-20 19:58 42.17699 -89.09228 1896 ft 149 kts 185°
2026-04-20 19:59 42.16663 -89.09334 2645 ft 152 kts 184°
2026-04-20 19:59 42.15555 -89.09447 3124 ft 169 kts 188°
2026-04-20 19:59 42.14422 -89.10124 3409 ft 196 kts 223°
2026-04-20 19:59 42.13471 -89.11591 3872 ft 218 kts 227°
2026-04-20 20:00 42.12417 -89.13190 4446 ft 239 kts 227°
2026-04-20 20:00 42.11256 -89.14889 5239 ft 250 kts 227°
2026-04-20 20:00 42.10056 -89.16624 6175 ft 256 kts 229°
2026-04-20 20:00 42.08832 -89.18394 7120 ft 260 kts 231°
2026-04-20 20:01 42.07591 -89.20196 8019 ft 265 kts 232°
2026-04-20 20:01 42.06331 -89.22029 8940 ft 269 kts 232°
2026-04-20 20:01 42.05043 -89.23900 9697 ft 276 kts 233°
2026-04-20 20:01 42.03723 -89.25817 10388 ft 287 kts 233°
2026-04-20 20:02 42.02314 -89.27874 10708 ft 311 kts 233°
2026-04-20 20:02 42.00801 -89.30082 11121 ft 329 kts 233°
2026-04-20 20:02 41.99228 -89.32363 11838 ft 335 kts 233°
2026-04-20 20:02 41.97626 -89.34668 12616 ft 339 kts 233°
2026-04-20 20:03 41.96005 -89.36998 13418 ft 343 kts 233°
2026-04-20 20:03 41.94366 -89.39361 14207 ft 348 kts 233°
2026-04-20 20:03 41.92549 -89.41572 14869 ft 359 kts 223°
2026-04-20 20:03 41.90367 -89.43320 15516 ft 372 kts 211°
2026-04-20 20:04 41.87961 -89.44723 16148 ft 379 kts 210°
2026-04-20 20:04 41.85526 -89.46135 16788 ft 384 kts 210°
2026-04-20 20:04 41.83061 -89.47570 17412 ft 389 kts 210°
2026-04-20 20:04 41.80521 -89.48935 18022 ft 399 kts 204°
2026-04-20 20:05 41.77768 -89.49753 18635 ft 413 kts 193°
2026-04-20 20:05 41.74853 -89.49913 19155 ft 424 kts 184°
2026-04-20 20:05 41.71886 -89.49733 19712 ft 432 kts 176°
2026-04-20 20:05 41.68937 -89.48760 20272 ft 443 kts 162°
2026-04-20 20:06 41.66187 -89.46840 20830 ft 451 kts 146°
2026-04-20 20:06 41.63838 -89.44052 21386 ft 455 kts 129°
2026-04-20 20:06 41.62055 -89.40573 21942 ft 455 kts 114°
2026-04-20 20:06 41.60949 -89.36692 22483 ft 452 kts 101°
2026-04-20 20:07 41.60074 -89.32640 23025 ft 456 kts 101°
2026-04-20 20:07 41.59182 -89.28552 23547 ft 460 kts 102°
2026-04-20 20:07 41.58272 -89.24434 24037 ft 464 kts 102°
2026-04-20 20:07 41.57349 -89.20290 24475 ft 467 kts 102°
2026-04-20 20:08 41.56418 -89.16121 24880 ft 471 kts 102°
2026-04-20 20:08 41.55477 -89.11917 25281 ft 474 kts 102°
2026-04-20 20:08 41.54533 -89.07693 25690 ft 477 kts 101°
2026-04-20 20:08 41.53578 -89.03437 26071 ft 480 kts 101°
2026-04-20 20:09 41.52618 -88.99159 26455 ft 483 kts 101°
2026-04-20 20:09 41.51562 -88.94882 26828 ft 489 kts 108°
2026-04-20 20:09 41.50032 -88.90792 27182 ft 498 kts 118°
2026-04-20 20:09 41.48000 -88.87025 27547 ft 504 kts 129°
2026-04-20 20:10 41.45522 -88.83697 27904 ft 509 kts 139°
2026-04-20 20:10 41.42656 -88.80912 28231 ft 512 kts 150°
2026-04-20 20:10 41.39570 -88.78506 28561 ft 515 kts 151°
2026-04-20 20:10 41.36467 -88.76112 28897 ft 517 kts 151°
2026-04-20 20:11 41.34399 -88.74520 29111 ft 519 kts 151°
2026-04-20 20:11 41.31263 -88.72108 29425 ft 522 kts 151°
2026-04-20 20:11 41.28114 -88.69685 29748 ft 524 kts 151°
2026-04-20 20:11 41.24953 -88.67251 30047 ft 527 kts 151°
2026-04-20 20:12 41.21775 -88.64803 30339 ft 529 kts 151°
2026-04-20 20:12 41.18583 -88.62341 30576 ft 532 kts 151°
2026-04-20 20:12 41.15377 -88.59874 30806 ft 534 kts 151°
2026-04-20 20:13 41.08923 -88.54932 31267 ft 536 kts 151°
2026-04-20 20:13 41.05697 -88.52466 31589 ft 535 kts 151°
2026-04-20 20:13 41.02479 -88.50005 31903 ft 534 kts 150°
2026-04-20 20:13 40.99260 -88.47543 32220 ft 534 kts 151°
2026-04-20 20:14 40.96046 -88.45091 32554 ft 533 kts 151°
2026-04-20 20:14 40.92826 -88.42642 32858 ft 533 kts 151°
2026-04-20 20:14 40.89650 -88.40231 33159 ft 533 kts 151°
2026-04-20 20:14 40.86440 -88.37796 33470 ft 532 kts 151°
2026-04-20 20:15 40.83236 -88.35364 33800 ft 531 kts 151°
2026-04-20 20:15 40.80038 -88.32934 34121 ft 530 kts 151°
2026-04-20 20:15 40.76838 -88.30504 34441 ft 530 kts 151°
2026-04-20 20:15 40.73647 -88.28088 34724 ft 529 kts 151°
2026-04-20 20:16 40.70454 -88.25675 35018 ft 528 kts 151°
2026-04-20 20:16 40.67275 -88.23276 35308 ft 527 kts 151°
2026-04-20 20:16 40.64099 -88.20882 35601 ft 525 kts 151°
2026-04-20 20:16 40.60931 -88.18494 35883 ft 524 kts 151°
2026-04-20 20:17 40.57865 -88.15922 36152 ft 523 kts 143°
2026-04-20 20:17 40.55057 -88.12887 36412 ft 522 kts 139°
2026-04-20 20:17 40.52316 -88.09762 36677 ft 521 kts 139°
2026-04-20 20:17 40.49580 -88.06651 36962 ft 519 kts 139°
2026-04-20 20:18 40.46851 -88.03554 37203 ft 518 kts 139°
2026-04-20 20:18 40.44118 -88.00463 37343 ft 518 kts 139°
2026-04-20 20:18 40.38660 -87.94313 37358 ft 516 kts 139°
2026-04-20 20:19 40.32893 -87.88753 37373 ft 514 kts 154°
2026-04-20 20:19 40.26277 -87.85464 37369 ft 506 kts 172°
2026-04-20 20:20 40.19347 -87.84009 37372 ft 504 kts 176°
2026-04-20 20:20 40.12403 -87.82650 37371 ft 505 kts 176°
2026-04-20 20:21 40.05454 -87.81285 37378 ft 505 kts 176°
2026-04-20 20:21 39.98541 -87.79923 37368 ft 506 kts 176°
2026-04-20 20:22 39.91581 -87.78559 37366 ft 506 kts 176°
2026-04-20 20:22 39.84617 -87.77201 37365 ft 506 kts 176°
2026-04-20 20:23 39.77655 -87.75846 37332 ft 506 kts 176°
2026-04-20 20:23 39.70698 -87.74494 37345 ft 506 kts 176°
2026-04-20 20:24 39.63741 -87.73147 37349 ft 505 kts 176°
2026-04-20 20:24 39.56782 -87.71795 37356 ft 505 kts 176°
2026-04-20 20:25 39.49829 -87.70443 37372 ft 505 kts 176°
2026-04-20 20:25 39.42870 -87.69098 37376 ft 505 kts 176°
2026-04-20 20:26 39.35910 -87.67765 37381 ft 506 kts 176°
2026-04-20 20:26 39.28951 -87.66432 37363 ft 505 kts 176°
2026-04-20 20:27 39.22045 -87.65115 37367 ft 505 kts 176°
2026-04-20 20:27 39.15095 -87.63781 37364 ft 505 kts 176°
2026-04-20 20:28 39.08146 -87.62449 37334 ft 505 kts 176°
2026-04-20 20:28 39.01203 -87.61117 37349 ft 504 kts 176°
2026-04-20 20:29 38.94257 -87.59802 37361 ft 504 kts 176°
2026-04-20 20:29 38.87311 -87.58496 37369 ft 504 kts 176°
2026-04-20 20:30 38.80365 -87.57178 37361 ft 504 kts 176°
2026-04-20 20:30 38.73423 -87.55858 37365 ft 504 kts 176°
2026-04-20 20:31 38.66479 -87.54553 37370 ft 504 kts 176°
2026-04-20 20:31 38.59532 -87.53251 37349 ft 504 kts 176°
2026-04-20 20:32 38.52604 -87.51940 37368 ft 503 kts 176°
2026-04-20 20:32 38.45719 -87.50652 37373 ft 503 kts 176°
2026-04-20 20:33 38.38790 -87.49357 37368 ft 503 kts 176°
2026-04-20 20:33 38.31871 -87.48063 37367 ft 502 kts 176°
2026-04-20 20:34 38.24950 -87.46770 37369 ft 502 kts 176°
2026-04-20 20:34 38.18036 -87.45486 37369 ft 502 kts 176°
2026-04-20 20:35 38.11124 -87.44202 37357 ft 502 kts 177°
2026-04-20 20:35 38.04214 -87.42923 37365 ft 502 kts 177°
2026-04-20 20:36 38.00767 -87.42176 37252 ft 505 kts 171°
2026-04-20 20:36 37.97399 -87.40832 36984 ft 510 kts 161°
2026-04-20 20:36 37.94120 -87.39108 36723 ft 510 kts 160°
2026-04-20 20:36 37.90842 -87.37374 36454 ft 511 kts 160°
2026-04-20 20:37 37.87560 -87.35620 35644 ft 515 kts 160°
2026-04-20 20:37 37.84256 -87.33839 34772 ft 517 kts 159°
2026-04-20 20:37 37.80945 -87.32046 33812 ft 519 kts 159°
2026-04-20 20:37 37.77607 -87.30244 32684 ft 523 kts 159°
2026-04-20 20:38 37.74301 -87.28467 31627 ft 525 kts 159°
2026-04-20 20:38 37.70927 -87.26659 30731 ft 525 kts 159°
2026-04-20 20:38 37.67591 -87.24872 30016 ft 518 kts 159°
2026-04-20 20:38 37.64289 -87.23103 29334 ft 512 kts 159°
2026-04-20 20:39 37.61036 -87.21362 28637 ft 506 kts 159°
2026-04-20 20:39 37.57809 -87.19636 27952 ft 501 kts 159°
2026-04-20 20:39 37.54610 -87.17925 27286 ft 496 kts 159°
2026-04-20 20:39 37.51445 -87.16237 26618 ft 492 kts 159°
2026-04-20 20:40 37.48298 -87.14561 25958 ft 489 kts 159°
2026-04-20 20:40 37.45178 -87.12903 25298 ft 486 kts 159°
2026-04-20 20:40 37.42074 -87.11256 24649 ft 482 kts 159°
2026-04-20 20:40 37.38986 -87.09641 24016 ft 478 kts 162°
2026-04-20 20:41 37.35817 -87.08490 23346 ft 470 kts 173°
2026-04-20 20:41 37.32624 -87.08022 23036 ft 455 kts 183°
2026-04-20 20:41 37.29520 -87.08081 22884 ft 450 kts 187°
2026-04-20 20:41 37.26401 -87.08198 22647 ft 447 kts 187°
2026-04-20 20:42 37.23297 -87.08307 22415 ft 445 kts 187°
2026-04-20 20:42 37.20205 -87.08415 22186 ft 443 kts 187°
2026-04-20 20:42 37.17130 -87.08522 21958 ft 441 kts 187°
2026-04-20 20:42 37.14064 -87.08631 21731 ft 440 kts 187°
2026-04-20 20:43 37.11012 -87.08746 21506 ft 438 kts 187°
2026-04-20 20:43 37.07968 -87.08865 21277 ft 436 kts 187°
2026-04-20 20:43 37.04943 -87.08980 21054 ft 434 kts 187°
2026-04-20 20:43 37.01927 -87.09091 20833 ft 433 kts 187°
2026-04-20 20:44 36.98923 -87.09200 20601 ft 431 kts 187°
2026-04-20 20:44 36.95929 -87.09310 20379 ft 430 kts 187°
2026-04-20 20:44 36.92946 -87.09420 20157 ft 428 kts 187°
2026-04-20 20:44 36.89980 -87.09524 19938 ft 425 kts 187°
2026-04-20 20:45 36.87027 -87.09632 19718 ft 423 kts 187°
2026-04-20 20:45 36.84080 -87.09644 19498 ft 425 kts 180°
2026-04-20 20:45 36.81179 -87.09051 19215 ft 421 kts 168°
2026-04-20 20:45 36.78461 -87.07812 18744 ft 422 kts 156°
2026-04-20 20:46 36.75837 -87.06195 18253 ft 419 kts 155°
2026-04-20 20:46 36.73253 -87.04601 17459 ft 411 kts 156°
2026-04-20 20:46 36.70713 -87.03044 16615 ft 403 kts 156°
2026-04-20 20:46 36.68217 -87.01522 16185 ft 397 kts 156°
2026-04-20 20:47 36.65745 -87.00018 15927 ft 394 kts 156°
2026-04-20 20:47 36.63292 -86.98523 15585 ft 391 kts 156°
2026-04-20 20:47 36.60856 -86.97038 15146 ft 389 kts 156°
2026-04-20 20:47 36.58434 -86.95562 14698 ft 386 kts 156°
2026-04-20 20:48 36.56031 -86.94099 14258 ft 384 kts 156°
2026-04-20 20:48 36.53643 -86.92642 13783 ft 381 kts 156°
2026-04-20 20:48 36.51273 -86.91194 13342 ft 377 kts 156°
2026-04-20 20:48 36.48931 -86.89768 12913 ft 373 kts 156°
2026-04-20 20:49 36.46614 -86.88361 12483 ft 370 kts 156°
2026-04-20 20:49 36.44310 -86.86963 12053 ft 367 kts 156°
2026-04-20 20:49 36.42025 -86.85579 11678 ft 363 kts 156°
2026-04-20 20:49 36.39797 -86.84230 11545 ft 350 kts 156°
2026-04-20 20:50 36.37650 -86.82927 11408 ft 338 kts 156°
2026-04-20 20:50 36.35560 -86.81661 11168 ft 331 kts 156°
2026-04-20 20:50 36.33509 -86.80421 11072 ft 327 kts 156°
2026-04-20 20:50 36.31456 -86.79182 10693 ft 331 kts 156°
2026-04-20 20:51 36.29408 -86.77946 10160 ft 324 kts 156°
2026-04-20 20:51 36.27404 -86.76733 9733 ft 312 kts 156°
2026-04-20 20:51 36.25477 -86.75795 9478 ft 292 kts 171°
2026-04-20 20:51 36.23481 -86.75483 9351 ft 286 kts 186°
2026-04-20 20:52 36.21538 -86.75776 9129 ft 278 kts 201°
2026-04-20 20:52 36.19710 -86.76453 8881 ft 269 kts 204°
2026-04-20 20:52 36.17969 -86.77110 8611 ft 256 kts 203°
2026-04-20 20:52 36.16286 -86.77732 8286 ft 249 kts 203°
2026-04-20 20:53 36.14622 -86.78337 7968 ft 250 kts 202°
2026-04-20 20:53 36.12946 -86.78939 7644 ft 250 kts 202°
2026-04-20 20:53 36.11279 -86.79528 7322 ft 249 kts 202°
2026-04-20 20:53 36.09611 -86.80113 6968 ft 250 kts 202°
2026-04-20 20:54 36.07935 -86.80701 6598 ft 251 kts 202°
2026-04-20 20:54 36.06253 -86.81289 6211 ft 252 kts 201°
2026-04-20 20:54 36.04563 -86.81878 5839 ft 252 kts 200°
2026-04-20 20:54 36.02889 -86.82458 5585 ft 247 kts 199°
2026-04-20 20:55 36.01246 -86.83029 5335 ft 243 kts 199°
2026-04-20 20:55 35.99622 -86.83528 5084 ft 240 kts 189°
2026-04-20 20:55 35.97984 -86.83316 4818 ft 237 kts 161°
2026-04-20 20:55 35.96603 -86.82227 4564 ft 237 kts 133°
2026-04-20 20:56 35.95773 -86.80490 4306 ft 236 kts 104°
2026-04-20 20:56 35.95668 -86.78484 4014 ft 235 kts 77°
2026-04-20 20:56 35.96277 -86.76682 3767 ft 229 kts 51°
2026-04-20 20:56 35.97347 -86.75284 3556 ft 218 kts 40°
2026-04-20 20:57 35.98421 -86.74085 3353 ft 198 kts 30°
2026-04-20 20:57 35.99624 -86.73396 3157 ft 185 kts 14°
2026-04-20 20:57 36.00840 -86.72922 2894 ft 180 kts 13°
2026-04-20 20:57 36.02009 -86.72467 2662 ft 173 kts 14°
2026-04-20 20:58 36.03155 -86.72020 2432 ft 170 kts 14°
2026-04-20 20:58 36.04229 -86.71598 2212 ft 150 kts 13°
2026-04-20 20:58 36.05204 -86.71217 2027 ft 143 kts 13°
2026-04-20 20:58 36.06134 -86.70853 1838 ft 138 kts 13°
2026-04-20 20:59 36.07041 -86.70496 1630 ft 135 kts 12°
2026-04-20 20:59 36.07929 -86.70147 1440 ft 134 kts 12°
2026-04-20 20:59 36.08814 -86.69800 1274 ft 133 kts 13°
2026-04-20 20:59 36.09693 -86.69456 1094 ft 132 kts 13°
2026-04-20 21:00 36.10563 -86.69110 887 ft 130 kts 14°
2026-04-20 21:00 36.11431 -86.68781 694 ft 129 kts 16°
2026-04-20 21:00 36.12265 -86.68453 578 ft 120 kts 17°
2026-04-20 21:00 36.12898 -86.68206 580 ft 68 kts 17°
2026-04-20 21:01 36.13205 -86.68085 579 ft 19 kts 18°
2026-04-20 21:01 36.13288 -86.67993 580 ft 16 kts 62°
2026-04-20 21:01 36.13315 -86.67892 573 ft 11 kts 113°
2026-04-20 21:01 36.13246 -86.67883 574 ft 11 kts 198°
2026-04-20 21:02 36.13178 -86.67909 573 ft 9 kts 197°
2026-04-20 21:02 36.13112 -86.67930 573 ft 14 kts 180°
2026-04-20 21:02 36.13040 -86.67855 573 ft 13 kts 133°
2026-04-20 21:02 36.12976 -86.67770 575 ft 14 kts 133°
2026-04-20 21:03 36.12910 -86.67683 571 ft 14 kts 133°
2026-04-20 21:03 36.12848 -86.67603 573 ft 11 kts 133°
2026-04-20 21:03 36.12812 -86.67556 573 ft 11 kts 133°
2026-04-20 21:03 36.12768 -86.67498 574 ft 9 kts 133°
2026-04-20 21:04 36.12735 -86.67428 574 ft 9 kts 88°
2026-04-20 21:04 36.12786 -86.67352 572 ft 13 kts 43°
2026-04-20 21:04 36.12821 -86.67284 574 ft 8 kts 99°
2026-04-20 21:04 36.12806 -86.67256 576 ft 2 kts 133°
2026-04-20 21:05 36.12782 -86.67224 570 ft 7 kts 132°
2026-04-20 21:05 36.12743 -86.67183 569 ft 6 kts 174°
2026-04-20 21:05 36.12712 -86.67207 573 ft 3 kts 223°
2026-04-20 21:05 36.12705 -86.67215 569 ft 1 kts 223°
2026-04-20 21:06 36.12704 -86.67216 569 ft 0 kts 223°